Regional Weather Roundup
Issued by NWS

Home | Current Version | Previous Version | Graphics & Text | Print | Product List | Glossary On
Versions: 1 2 3 4 5 6 7 8 9 10 11 12 13 14 15 16 17 18 19 20 21 22 23 24 25 26 27 28 29 30 31 32 33 34 35 36 37 38 39 40 41 42 43 44 45 46 47 48 49 50
000
ASUS43 KFSD 032310
RWRSD

WEATHER ROUNDUP FOR SOUTH DAKOTA
NATIONAL WEATHER SERVICE SIOUX FALLS SD
600 PM CDT SUN MAY 03 2015

NOTE: "FAIR" INDICATES FEW OR NO CLOUDS BELOW 12,000 FEET WITH NO
SIGNIFICANT WEATHER AND/OR OBSTRUCTIONS TO VISIBILITY.


SDZ001>005-009-010-012>017-040000-
NORTHWEST AND NORTH CENTRAL SOUTH DAKOTA

CITY           SKY/WX    TMP DP  RH WIND       PRES   REMARKS
BUFFALO          N/A     60  34  37 VRB5      29.97S
FAITH            N/A     65  29  25 NE13      30.01S
MOBRIDGE       PTSUNNY   68  25  19 N9        29.97S
$$

SDZ012>016-024>037-041>051-057-063-072>074-040000-
SOUTHWEST AND SOUTH CENTRAL SOUTH DAKOTA

CITY           SKY/WX    TMP DP  RH WIND       PRES   REMARKS
RAPID CTY ARPT MOSUNNY   65  36  34 NE15G23   30.00S
PIERRE         SUNNY     72  31  22 NE17      29.95R
CUSTER         PTSUNNY   57  35  43 E16       30.05R
ELLSWORTH AFB  MOSUNNY   65  36  34 NE12      30.00R
PHILIP         SUNNY     72  35  25 NE13      29.97R
PINE RIDGE     SUNNY     69  37  30 NE13G23   29.98R
SPEARFISH      FAIR      61  37  41 NE7G16    30.05R
WINNER         FAIR      75  34  22 NE22G33   29.93R
$$

SDZ004>011-016>023-039-040-040000-
NORTHEAST SOUTH DAKOTA

CITY           SKY/WX    TMP DP  RH WIND       PRES   REMARKS
ABERDEEN       MOSUNNY   69  26  20 NE8       29.96S
WATERTOWN      MOSUNNY   68  37  32 NE17      29.93R
BROOKINGS      PTSUNNY   68  36  30 N21       29.88F
SISSETON         N/A     67  28  23 N16G24    29.95R
$$

SDZ017-020-022-023-036>040-048>070-040000-
SOUTHEAST SOUTH DAKOTA

CITY           SKY/WX    TMP DP  RH WIND       PRES   REMARKS
SIOUX FALLS    CLOUDY    71  39  31 NE26G35   29.81F
HURON          MOSUNNY   73  36  25 N21G30    29.90R
CHAMBERLAIN    SUNNY     72  33  24 NE15G24   29.92R
MITCHELL       PTSUNNY   75  37  25 NE21G30   29.88R
YANKTON        MOSUNNY   73  45  35 N23G32    29.80R
$$

ABBREVIATIONS USED IN REMARKS
   TC - TEMPERATURE IN CELSIUS
  WCI - WIND CHILL INDEX
   HX - HEAT INDEX
  VSB - VISIBILITY



USA.gov is the U.S. government's official web portal to all federal, state and local government web resources and services.